Radiation Dose at Monitoring Post of Fukushima Daini Nuclear Power Station
Date,Time,MP-1(microSv/h),MP-2(microSv/h),MP-3(microSv/h),MP-4(microSv/h),MP-5(microSv/h),MP-6(microSv/h),MP-7(microSv/h),Wind Direction,Wind Velocity(m/s),Rain
2018/08/20,00:00,0.324,0.199,0.329,0.316,0.288,0.160,0.098,south-southwest,5.5,No
2018/08/20,00:10,0.321,0.200,0.325,0.314,0.290,0.159,0.097,south-southwest,7.0,No
2018/08/20,00:20,0.324,0.200,0.327,0.315,0.288,0.159,0.098,south-southwest,6.4,No
2018/08/20,00:30,0.320,0.200,0.327,0.314,0.287,0.159,0.097,south-southwest,7.0,No
2018/08/20,00:40,0.323,0.199,0.326,0.312,0.290,0.159,0.098,south-southwest,4.6,No
2018/08/20,00:50,0.322,0.200,0.328,0.316,0.288,0.160,0.097,south-southwest,4.5,No
2018/08/20,01:00,0.323,0.199,0.328,0.313,0.291,0.159,0.098,south-southwest,3.5,No
2018/08/20,01:10,0.322,0.200,0.329,0.315,0.288,0.161,0.098,southwest,2.3,No
2018/08/20,01:20,0.321,0.199,0.326,0.313,0.291,0.158,0.098,southwest,3.0,No
2018/08/20,01:30,0.323,0.200,0.328,0.314,0.289,0.160,0.098,southwest,3.0,No
2018/08/20,01:40,0.323,0.200,0.327,0.315,0.288,0.158,0.098,west-southwest,2.3,No
2018/08/20,01:50,0.324,0.199,0.328,0.314,0.290,0.159,0.097,west-southwest,2.2,No
2018/08/20,02:00,0.321,0.201,0.326,0.316,0.289,0.160,0.098,southwest,2.2,No
2018/08/20,02:10,0.323,0.200,0.327,0.313,0.289,0.160,0.098,southwest,1.6,No
2018/08/20,02:20,0.322,0.201,0.326,0.316,0.287,0.159,0.099,west-southwest,1.9,No
2018/08/20,02:30,0.324,0.200,0.327,0.314,0.291,0.159,0.098,west-southwest,1.3,No
2018/08/20,02:40,0.320,0.201,0.328,0.315,0.288,0.161,0.098,north-northeast,0.7,No
2018/08/20,02:50,0.324,0.200,0.326,0.314,0.289,0.160,0.098,-,CALM,No
2018/08/20,03:00,0.322,0.201,0.329,0.315,0.289,0.159,0.097,-,CALM,No
2018/08/20,03:10,0.323,0.200,0.327,0.314,0.289,0.160,0.099,north,0.9,No
2018/08/20,03:20,0.323,0.201,0.329,0.316,0.290,0.159,0.098,north,0.6,No
2018/08/20,03:30,0.324,0.201,0.327,0.314,0.289,0.160,0.098,-,CALM,No
2018/08/20,03:40,0.322,0.201,0.328,0.315,0.290,0.160,0.098,-,CALM,No
2018/08/20,03:50,0.323,0.200,0.326,0.314,0.288,0.159,0.098,north,0.8,No
2018/08/20,04:00,0.321,0.200,0.328,0.316,0.290,0.160,0.099,north,0.6,No
2018/08/20,04:10,0.323,0.200,0.327,0.316,0.288,0.160,0.099,-,CALM,No
2018/08/20,04:20,0.321,0.200,0.330,0.315,0.291,0.159,0.097,-,CALM,No
2018/08/20,04:30,0.323,0.200,0.326,0.314,0.289,0.160,0.098,west-southwest,0.7,No
2018/08/20,04:40,0.321,0.199,0.328,0.315,0.290,0.160,0.098,west-southwest,0.6,No
2018/08/20,04:50,0.323,0.199,0.326,0.314,0.288,0.159,0.098,-,CALM,No
2018/08/20,05:00,0.322,0.200,0.328,0.314,0.291,0.158,0.098,-,CALM,No
2018/08/20,05:10,0.323,0.201,0.325,0.314,0.286,0.159,0.098,south-southeast,1.0,No
2018/08/20,05:20,0.322,0.199,0.330,0.313,0.289,0.159,0.097,south-southeast,1.1,No
2018/08/20,05:30,0.323,0.201,0.328,0.314,0.287,0.159,0.098,south-southwest,1.4,No
2018/08/20,05:40,0.323,0.200,0.328,0.313,0.289,0.160,0.098,southeast,0.9,No
2018/08/20,05:50,0.323,0.199,0.326,0.315,0.290,0.159,0.098,south,1.1,No
2018/08/20,06:00,0.322,0.199,0.328,0.314,0.288,0.160,0.097,south-southeast,0.9,No
2018/08/20,06:10,0.321,0.200,0.325,0.314,0.290,0.159,0.098,-,CALM,No
2018/08/20,06:20,0.323,0.200,0.329,0.312,0.288,0.160,0.098,south-southeast,0.6,No
2018/08/20,06:30,0.321,0.200,0.326,0.316,0.290,0.159,0.098,south,0.9,No
2018/08/20,06:40,0.325,0.200,0.329,0.313,0.287,0.160,0.098,south-southwest,1.9,No
2018/08/20,06:50,0.321,0.201,0.326,0.315,0.289,0.159,0.099,south-southwest,2.7,No
2018/08/20,07:00,0.323,0.198,0.327,0.314,0.290,0.160,0.098,south-southwest,1.5,No
2018/08/20,07:10,0.322,0.200,0.326,0.315,0.287,0.159,0.098,south-southwest,1.6,No
2018/08/20,07:20,0.321,0.200,0.326,0.316,0.291,0.160,0.098,south-southwest,1.5,No
2018/08/20,07:30,0.323,0.199,0.327,0.312,0.290,0.159,0.098,south-southwest,1.8,No
2018/08/20,07:40,0.321,0.201,0.325,0.315,0.287,0.159,0.097,south-southwest,0.7,No
2018/08/20,07:50,0.324,0.200,0.329,0.314,0.291,0.159,0.096,south,1.7,No
2018/08/20,08:00,0.323,0.199,0.326,0.312,0.289,0.160,0.097,south,2.2,No
2018/08/20,08:10,0.322,0.200,0.323,0.310,0.286,0.159,0.097,south,2.4,No
2018/08/20,08:20,0.319,0.201,0.330,0.311,0.285,0.160,0.098,south,2.5,No
2018/08/20,08:30,0.319,0.198,0.327,0.310,0.289,0.160,0.097,south-southeast,2.0,No
2018/08/20,08:40,0.322,0.199,0.324,0.310,0.290,0.158,0.097,south-southeast,3.0,No
2018/08/20,08:50,0.324,0.198,0.325,0.316,0.288,0.160,0.097,south,4.2,No
2018/08/20,09:00,0.322,0.199,0.329,0.315,0.287,0.160,0.098,south,4.7,No
2018/08/20,09:10,0.319,0.201,0.327,0.313,0.286,0.159,0.099,south,4.8,No
2018/08/20,09:20,0.321,0.201,0.324,0.313,0.286,0.158,0.097,south,5.2,No
2018/08/20,09:30,0.324,0.199,0.326,0.312,0.287,0.160,0.098,south,5.1,No
2018/08/20,09:40,0.323,0.198,0.329,0.311,0.287,0.159,0.098,south,2.9,No
2018/08/20,09:50,0.321,0.198,0.326,0.312,0.286,0.160,0.099,south-southeast,3.4,No
2018/08/20,10:00,0.320,0.198,0.322,0.311,0.286,0.160,0.098,south-southeast,6.8,No
2018/08/20,10:10,0.319,0.199,0.328,0.311,0.288,0.159,0.098,south,7.1,No
2018/08/20,10:20,0.319,0.200,0.329,0.313,0.286,0.159,0.097,south,6.8,No
2018/08/20,10:30,0.320,0.200,0.327,0.314,0.287,0.159,0.098,south-southeast,7.2,No
2018/08/20,10:40,0.319,0.199,0.325,0.313,0.287,0.160,0.097,south,6.7,No
2018/08/20,10:50,0.321,0.199,0.325,0.314,0.287,0.159,0.098,south-southeast,7.2,No
2018/08/20,11:00,0.322,0.199,0.323,0.311,0.286,0.159,0.098,south,7.4,No
2018/08/20,11:10,0.320,0.199,0.324,0.313,0.288,0.159,0.097,south-southeast,6.6,No
2018/08/20,11:20,0.320,0.199,0.324,0.313,0.288,0.159,0.098,south,6.5,No
2018/08/20,11:30,0.320,0.200,0.324,0.314,0.289,0.160,0.097,south-southeast,7.5,No
2018/08/20,11:40,0.320,0.200,0.324,0.312,0.289,0.158,0.097,south,7.5,No
2018/08/20,11:50,0.320,0.200,0.324,0.311,0.289,0.159,0.097,south,7.6,No
2018/08/20,12:00,0.322,0.200,0.326,0.311,0.288,0.159,0.097,south,7.0,No
2018/08/20,12:10,0.320,0.199,0.325,0.312,0.288,0.160,0.097,south,7.3,No
2018/08/20,12:20,0.319,0.199,0.326,0.313,0.288,0.159,0.097,south,7.1,No
2018/08/20,12:30,0.320,0.200,0.324,0.314,0.288,0.160,0.097,south,6.9,No
2018/08/20,12:40,0.320,0.199,0.325,0.312,0.288,0.160,0.096,south-southeast,6.1,No
2018/08/20,12:50,0.320,0.200,0.326,0.314,0.288,0.160,0.097,south,7.5,No
2018/08/20,13:00,0.320,0.200,0.327,0.313,0.289,0.160,0.097,south-southeast,6.4,No
2018/08/20,13:10,0.322,0.199,0.326,0.313,0.289,0.160,0.097,south-southeast,7.1,No
2018/08/20,13:20,0.321,0.200,0.327,0.315,0.289,0.160,0.097,south-southeast,8.2,No
2018/08/20,13:30,0.321,0.200,0.327,0.313,0.289,0.161,0.098,south-southeast,8.1,No
2018/08/20,13:40,0.320,0.199,0.326,0.314,0.289,0.160,0.097,south,8.4,No
2018/08/20,13:50,0.321,0.199,0.325,0.313,0.288,0.160,0.097,south-southeast,8.1,No
2018/08/20,14:00,0.322,0.199,0.326,0.315,0.289,0.159,0.097,south-southeast,7.1,No
2018/08/20,14:10,0.321,0.200,0.326,0.313,0.289,0.160,0.097,south,7.7,No
2018/08/20,14:20,0.319,0.200,0.325,0.313,0.288,0.160,0.097,south-southeast,7.8,No
2018/08/20,14:30,0.321,0.199,0.326,0.313,0.288,0.160,0.097,south,7.5,No
2018/08/20,14:40,0.322,0.199,0.326,0.312,0.288,0.160,0.097,south,7.7,No
2018/08/20,14:50,0.322,0.199,0.327,0.313,0.288,0.159,0.098,south,7.0,No
2018/08/20,15:00,0.322,0.199,0.325,0.312,0.288,0.159,0.098,south-southeast,7.7,No
2018/08/20,15:10,0.322,0.199,0.325,0.314,0.289,0.161,0.097,south-southeast,6.8,No
2018/08/20,15:20,0.322,0.201,0.325,0.319,0.289,0.159,0.097,south,7.8,No
2018/08/20,15:30,0.322,0.199,0.325,0.318,0.288,0.159,0.096,south,8.1,No
2018/08/20,15:40,0.321,0.199,0.326,0.316,0.287,0.160,0.096,south-southeast,7.3,No
2018/08/20,15:50,0.322,0.200,0.328,0.315,0.287,0.159,0.097,south-southeast,7.0,No
2018/08/20,16:00,0.320,0.199,0.332,0.313,0.287,0.160,0.097,south,6.6,No
2018/08/20,16:10,0.319,0.199,0.329,0.314,0.287,0.159,0.096,south-southeast,6.7,No
2018/08/20,16:20,0.320,0.201,0.328,0.317,0.288,0.158,0.097,south,6.3,No
2018/08/20,16:30,0.326,0.201,0.325,0.317,0.288,0.161,0.097,south-southeast,4.8,No
2018/08/20,16:40,0.325,0.201,0.328,0.314,0.286,0.160,0.098,south,5.1,No
2018/08/20,16:50,0.323,0.199,0.330,0.313,0.290,0.159,0.096,south,5.7,No
2018/08/20,17:00,0.320,0.200,0.328,0.318,0.290,0.160,0.097,south,6.1,No
2018/08/20,17:10,0.324,0.202,0.325,0.316,0.289,0.161,0.098,south,4.9,Yes
2018/08/20,17:20,0.326,0.200,0.328,0.313,0.287,0.160,0.098,south,4.7,No
2018/08/20,17:30,0.323,0.200,0.329,0.315,0.291,0.160,0.097,south,4.1,No
2018/08/20,17:40,0.321,0.201,0.326,0.317,0.291,0.159,0.098,south-southwest,3.9,No
2018/08/20,17:50,0.325,0.200,0.330,0.315,0.288,0.160,0.097,south,4.5,No
2018/08/20,18:00,0.323,0.199,0.329,0.315,0.288,0.159,0.098,south-southwest,4.3,No
2018/08/20,18:10,0.320,0.200,0.327,0.317,0.291,0.159,0.097,south-southwest,3.7,No
2018/08/20,18:20,0.323,0.200,0.328,0.314,0.288,0.161,0.098,south-southwest,4.2,No
2018/08/20,18:30,0.326,0.199,0.329,0.313,0.287,0.159,0.097,south-southwest,4.5,No
2018/08/20,18:40,0.321,0.201,0.326,0.316,0.291,0.159,0.097,south-southwest,4.5,No
2018/08/20,18:50,0.322,0.201,0.330,0.316,0.290,0.159,0.098,south-southwest,3.4,No
2018/08/20,19:00,0.326,0.199,0.331,0.314,0.288,0.160,0.098,south,2.7,No
2018/08/20,19:10,0.321,0.202,0.328,0.317,0.287,0.159,0.096,south,1.6,No
2018/08/20,19:20,0.321,0.201,0.328,0.317,0.291,0.160,0.097,south,1.6,No
2018/08/20,19:30,0.325,0.199,0.329,0.313,0.288,0.161,0.099,south,0.8,No
2018/08/20,19:40,0.323,0.201,0.327,0.315,0.287,0.160,0.098,south-southwest,1.2,No
2018/08/20,19:50,0.320,0.200,0.327,0.317,0.291,0.160,0.097,south,1.2,No
2018/08/20,20:00,0.325,0.200,0.330,0.314,0.290,0.160,0.098,south-southwest,1.8,No
2018/08/20,20:10,0.323,0.201,0.327,0.314,0.287,0.160,0.098,south,2.4,No
2018/08/20,20:20,0.321,0.200,0.328,0.318,0.290,0.158,0.097,south,2.1,No
2018/08/20,20:30,0.324,0.199,0.330,0.316,0.292,0.161,0.098,south,1.5,No
2018/08/20,20:40,0.324,0.201,0.328,0.314,0.289,0.160,0.098,south-southeast,0.9,No
2018/08/20,20:50,0.321,0.202,0.327,0.316,0.287,0.159,0.097,south,1.0,No
2018/08/20,21:00,0.323,0.199,0.330,0.315,0.290,0.160,0.098,south-southeast,1.1,No
2018/08/20,21:10,0.323,0.201,0.328,0.313,0.290,0.160,0.097,south,1.8,No
2018/08/20,21:20,0.320,0.200,0.326,0.315,0.288,0.159,0.097,south,1.2,No
2018/08/20,21:30,0.322,0.200,0.331,0.316,0.289,0.160,0.098,south,2.2,No
2018/08/20,21:40,0.326,0.201,0.329,0.315,0.292,0.160,0.098,south,3.4,No
2018/08/20,21:50,0.323,0.200,0.326,0.315,0.289,0.160,0.098,south,1.3,No
2018/08/20,22:00,0.321,0.200,0.331,0.318,0.288,0.159,0.097,south-southwest,1.3,No
2018/08/20,22:10,0.326,0.202,0.328,0.315,0.293,0.161,0.098,south-southeast,1.3,No
2018/08/20,22:20,0.322,0.200,0.327,0.315,0.291,0.159,0.097,south,1.8,No
2018/08/20,22:30,0.322,0.200,0.330,0.318,0.289,0.161,0.098,south,1.0,No
2018/08/20,22:40,0.325,0.202,0.329,0.316,0.291,0.160,0.100,south-southwest,2.4,No
2018/08/20,22:50,0.324,0.201,0.327,0.315,0.290,0.160,0.099,south-southwest,4.2,No
2018/08/20,23:00,0.321,0.200,0.331,0.318,0.287,0.160,0.098,south,2.1,No
2018/08/20,23:10,0.326,0.203,0.329,0.316,0.293,0.162,0.099,south,2.6,No
2018/08/20,23:20,0.325,0.201,0.328,0.314,0.292,0.160,0.099,south,1.5,No
2018/08/20,23:30,0.322,0.201,0.332,0.318,0.288,0.160,0.098,south,4.1,No
2018/08/20,23:40,0.327,0.202,0.328,0.316,0.292,0.161,0.099,south,6.1,No
2018/08/20,23:50,0.324,0.200,0.327,0.314,0.291,0.160,0.098,south,5.3,No
